Content
SEND FEEDBACK

Daily
Averages
Monthly
Summary
Greece

ATHENS, GREECE


Home > Europe > Greece
Elevation: 69 feet     Latitude: 37 54N     Longitude: 023 44E

WEATHER
 
SELECT A DAY
Number of Records: 76,381;   Date Range: 4/14/01 - 7/11/14
 
SHARE

PRINT THIS DATA

[ ← Previous Day ]
WEATHER ALMANAC - OCTOBER 15, 2013
[ Next Day → ]
[ °C ]   °F
Weather ElementAverageHighLow
Temperature66.9 °F78.8 °F (12:20 pm)53.6 °F (6:20 am)
Dewpoint55.6 °F62.6 °F (9:20 pm)50 °F (3:50 am)
Humidity69 %88 % (2:50 am)42 % (3:50 pm)
Barometer30.07 in30.15 in (12:50 am)29.98 in (10:50 pm)
Wind Speed5.4 mph16.1 mph (3:50 pm)
Weather ElementAverage
Visibility6.2 mi
Wind DirectionSSE (165.5 °)

Weather ElementTotal
Precipitation---
Cooling Degree Days1.2 (Base 65)
Growing Degree Days16.2 (Base 50)
Averaged from 47 records on October 15, 2013
WEATHER CONDITIONS BREAKOUT
WIND DIRECTION BREAKOUT
WEATHER BY HOUR - OCTOBER 15, 2013
[ °C ]   °F
Local TimeTemperatureDewpointHumidityBarometerVisibilityWind DirectionWind SpeedGust SpeedPrecipitationEventsConditions
12:50 AM59.0 °F51.8 °F77 %30.15 inWest (280°)4.6 mphClear
1:20 AM57.2 °F51.8 °F82 %30.15 inWNW (290°)2.3 mphClear
1:50 AM57.2 °F51.8 °F82 %30.15 inNW (310°)2.3 mphClear
2:20 AM57.2 °F51.8 °F82 %30.15 inWNW (290°)1.2 mphClear
2:50 AM55.4 °F51.8 °F88 %30.15 inVariable1.2 mphClear
3:20 AM57.2 °F51.8 °F82 %30.12 inWNW (300°)2.3 mphClear
3:50 AM55.4 °F50.0 °F82 %30.12 inNW (310°)2.3 mphClear
4:20 AM55.4 °F51.8 °F88 %30.12 inWNW (290°)4.6 mphClear
4:50 AM55.4 °F51.8 °F88 %30.12 inWest (280°)2.3 mphClear
5:20 AM55.4 °F50.0 °F82 %30.12 inWNW (290°)4.6 mphClear
5:50 AM55.4 °F51.8 °F88 %30.09 inNW (310°)2.3 mphClear
6:20 AM53.6 °F50.0 °F88 %30.09 inNW (320°)1.2 mphClear
6:50 AM53.6 °F50.0 °F88 %30.09 inNorth (10°)2.3 mphClear
7:20 AM59.0 °F50.0 °F72 %30.09 inCalmClear
7:50 AM57.2 °F50.0 °F77 %30.09 inVariable2.3 mphClear
8:20 AM59.0 °F51.8 °F77 %30.12 inWest (280°)3.5 mphClear
8:50 AM62.6 °F51.8 °F68 %30.12 inVariable2.3 mphClear
9:20 AM66.2 °F53.6 °F64 %30.12 inCalmClear
9:50 AM68.0 °F55.4 °F64 %30.12 inCalmClear
10:20 AM69.8 °F55.4 °F60 %30.12 inVariable1.2 mphClear
10:50 AM73.4 °F55.4 °F53 %30.12 inVariable1.2 mphClear
11:20 AM73.4 °F53.6 °F50 %30.09 inVariable1.2 mphClear
11:50 AM77.0 °F55.4 °F47 %30.09 inVariable2.3 mphClear
12:20 PM78.8 °F55.4 °F44 %30.09 inSSE (150°)5.8 mphClear
12:50 PM77.0 °F57.2 °F50 %30.06 inESE (120°)6.9 mphClear
1:20 PM77.0 °F57.2 °F50 %30.06 inSouth (170°)6.9 mphClear
1:50 PM78.8 °F57.2 °F47 %30.06 inSouth (180°)10.4 mphClear
2:20 PM78.8 °F57.2 °F47 %30.04 inSouth (190°)12.7 mphClear
2:50 PM78.8 °F55.4 °F44 %30.04 inSSW (210°)12.7 mphClear
3:20 PM78.8 °F55.4 °F44 %30.01 inSSW (200°)12.7 mphClear
3:50 PM78.8 °F53.6 °F42 %30.01 inSSW (200°)16.1 mphClear
4:20 PM77.0 °F57.2 °F50 %30.01 in6.2 miSSW (210°)15.0 mphPartly Cloudy
4:50 PM75.2 °F59.0 °F57 %30.01 inSW (220°)16.1 mphClear
5:20 PM75.2 °F60.8 °F61 %30.01 inSSW (210°)15.0 mphClear
5:50 PM73.4 °F60.8 °F65 %30.01 inSSW (210°)12.7 mphClear
6:20 PM71.6 °F59.0 °F64 %30.01 inSSW (210°)12.7 mphClear
6:50 PM71.6 °F59.0 °F64 %30.01 inSSW (210°)9.2 mphClear
7:20 PM71.6 °F60.8 °F69 %30.01 inSW (220°)8.1 mphClear
7:50 PM69.8 °F60.8 °F73 %30.01 inSSW (210°)8.1 mphClear
8:20 PM68.0 °F60.8 °F78 %30.01 inSW (230°)4.6 mphClear
8:50 PM68.0 °F60.8 °F78 %30.01 inSW (220°)4.6 mphClear
9:20 PM68.0 °F62.6 °F83 %30.01 inWSW (250°)2.3 mphClear
9:50 PM68.0 °F60.8 °F78 %30.01 inVariable2.3 mphClear
10:20 PM68.0 °F62.6 °F83 %30.01 inVariable1.2 mphClear
10:50 PM68.0 °F60.8 °F78 %29.98 inVariable1.2 mphClear
11:20 PM66.2 °F60.8 °F83 %29.98 inSouth (180°)3.5 mphClear
11:50 PM66.2 °F60.8 °F83 %29.98 inSW (220°)4.6 mphClear
Hourly data recorded from LGAV, located miles away from Athens, Greece







STORIES FROM OUR PARTNERS